#timestamp,LO_Frequency,Hit,StdDev 
1584180015.9,286046991.9,N
1584180035.7,286046994.2,N
1584180055.5,286046995.6,N
1584180075.4,286046995.7,N
1584180095.2,286046997.8,N
1584180115.0,286046995.5,N
1584180115.9,286046995.5,N
1584180135.8,286046997.3,N
1584180155.6,286046995.8,N
1584180175.5,286046993.9,N
1584180195.3,286046994.6,N
1584180215.1,286046994.1,N
1584180235.9,286046996.3,N
1584180255.7,286046997.4,N
1584180275.6,286046994.0,N
1584180295.4,286046993.8,N
1584180315.2,286046997.2,N
1584180335.1,286046997.5,N
1584180336.0,286046997.5,N
1584180355.8,286046997.6,N
1584180375.6,286046995.4,N
1584180395.5,286046997.3,N
1584180415.3,286046997.8,N
1584180435.2,286046997.8,N
1584180455.9,286046998.0,N
1584180475.7,286046996.7,N
1584180495.6,286046996.6,N
1584180515.4,286046996.6,N
1584180535.3,286046999.5,N
1584180555.1,286046997.9,N
1584180556.0,286046997.9,N
1584180575.8,286046996.8,N
1584180595.7,286046997.2,N
1584180615.5,286046997.7,N
1584180635.3,286046996.5,N
1584180655.2,286046999.0,N
1584180675.0,286046999.9,N
1584180675.9,286046999.9,N
1584180695.8,286047001.0,N
1584180715.6,286046998.6,N
1584180735.4,286046999.2,N
1584180755.3,286046996.5,N
1584180775.1,286046997.0,N
1584180795.9,286046998.4,N
1584180815.7,286046999.0,N
1584180835.5,286046999.6,N
1584180855.4,286047001.1,N
1584180875.2,286047001.0,N
1584180895.1,286046998.9,N
1584180896.0,286046998.9,N
1584180915.8,286046999.0,N
1584180935.6,286047001.1,N
1584180955.5,286046999.5,N
1584180975.3,286046999.0,N
1584180995.1,286046998.2,N
1584181015.9,286046997.0,N
1584181035.7,286046999.4,N
1584181055.6,286046999.1,N
1584181075.4,286046998.6,N
1584181095.2,286046998.1,N
1584181115.1,286046999.0,N
1584181116.0,286046999.0,N
1584181135.8,286046999.1,N
1584181155.7,286046999.8,N
1584181175.5,286047002.7,N
1584181195.3,286047002.2,N
1584181215.2,286047002.3,N
1584181235.0,286046999.9,N
1584181235.9,286046999.9,N
1584181255.8,286046999.6,N
1584181275.6,286046998.7,N
1584181295.4,286047002.8,N
1584181315.3,286047002.5,N
1584181335.1,286047000.8,N
1584181355.9,286046999.9,N
1584181375.7,286046999.7,N
1584181395.5,286046999.8,N
1584181415.4,286047004.4,Y
1584181435.2,286047001.3,P
1584181455.1,286047003.0,P
1584181456.0,286047003.0,N
1584181475.8,286047002.6,N
1584181495.6,286047004.2,Y
1584181515.5,286046999.4,P
1584181535.3,286047000.6,N
1584181555.2,286047003.3,P
1584181575.9,286047007.1,Y
1584181595.7,286047007.5,P
1584181615.6,286047004.9,N
1584181635.4,286047006.1,N
1584181655.2,286047005.7,N
1584181675.1,286047002.6,N
1584181676.0,286047002.6,N
1584181695.8,286047004.1,N
1584181715.7,286047002.2,N
1584181735.5,286046998.6,N
1584181755.3,286046998.6,N
1584181775.2,286046997.2,N
1584181795.0,286046994.1,N
1584181795.9,286046994.1,N
1584181815.8,286046991.6,N
1584181835.6,286046987.2,N
1584181855.4,286046985.6,N
1584181875.3,286046984.5,N
1584181895.1,286046984.8,N
1584181915.8,286046986.4,N
1584181935.7,286046986.5,N
1584181955.5,286046983.2,N
1584181975.4,286046977.2,N
1584181995.2,286046972.7,Y
1584182015.0,286046977.2,P
1584182015.9,286046977.2,N
1584182035.8,286046986.0,N
1584182055.6,286046988.7,N
1584182075.4,286046987.7,N
1584182095.3,286046985.7,N
1584182115.1,286046985.7,N
1584182135.9,286046985.5,N
1584182155.7,286046992.4,N
1584182175.5,286046991.6,N
1584182195.4,286046987.7,N
1584182215.2,286046986.0,N
1584182235.1,286046984.7,Y
1584182236.0,286046984.7,P
1584182255.8,286046997.7,N
1584182275.6,286046995.0,N
1584182295.5,286046994.7,N
1584182315.3,286046992.1,N
1584182335.2,286046992.8,N
1584182355.9,286046990.3,N
1584182375.7,286046990.8,N
1584182395.6,286046988.8,N
1584182415.4,286046991.6,N
1584182435.3,286046989.7,N
1584182455.1,286046988.3,Y
1584182456.0,286046988.3,P
1584182475.8,286046986.3,P
1584182495.7,286046995.9,N
1584182515.5,286046995.3,N
1584182535.3,286046995.1,N
1584182555.2,286046996.7,N
1584182575.0,286046996.8,N
1584182575.9,286046996.8,N
1584182595.8,286046996.9,N
1584182615.6,286046999.5,N
1584182635.4,286046998.5,N
1584182655.3,286046998.5,N
1584182675.1,286046999.8,N
1584182695.9,286047003.1,N
1584182715.7,286047004.2,N
1584182735.5,286047001.7,N
1584182755.4,286047001.7,N
1584182775.2,286047004.4,N
1584182795.1,286047003.7,N
1584182796.0,286047003.7,N
1584182815.8,286047005.9,N
1584182835.6,286047003.3,N
1584182855.5,286047003.7,N
1584182875.3,286047003.8,N
1584182895.1,286047003.0,N
1584182915.9,286047005.2,N
1584182935.7,286047005.7,N
1584182955.6,286047007.5,N
1584182975.4,286047008.3,N
1584182995.2,286047012.1,N
1584183015.1,286047013.6,N
1584183016.0,286047013.6,N
1584183035.8,286047013.1,N
1584183055.7,286047011.5,N
1584183075.5,286047009.6,N
1584183095.3,286047011.2,N
1584183115.2,286047012.5,N
1584183135.0,286047015.3,Y
1584183135.9,286047015.3,P
1584183155.8,286047010.7,N
1584183175.6,286047008.2,N
1584183195.4,286047006.2,N
1584183215.3,286047008.1,N
1584183235.1,286047006.7,N
1584183255.9,286047008.9,N
1584183275.7,286047010.6,Y
1584183325.6,286047000.7,E
1584183335.5,286047001.2,N
1584183355.3,286046998.2,P
1584183375.2,286046998.7,N
1584183395.0,286046999.5,N
1584183395.9,286046999.5,N
1584183415.8,286046999.2,N
1584183435.6,286046999.5,N
1584183455.4,286046997.8,N
1584183475.3,286046995.0,Y
1584183495.1,286046997.9,P
1584183515.8,286046997.4,P
1584183535.7,286046999.3,N
1584183555.5,286046999.0,N
1584183575.4,286046999.2,N
1584183595.2,286046996.9,Y
